This demonstration page uses our WeatherBlox Daily Observations layout. Learn more.

Left ArrowRight Arrow

39.01783, -85.05884

Hourly Observations for April 27, 2018

Temp ( °F °C ) Dew Point ( °F °C ) Humidity (%) Winds ( mph kmh ) Pressure ( in mb ) Visibility ( mi km ) Precip ( " mm )
12:52 am 00:52 Mostly Clear 53 11.7 33 0.6 47 47 WNW 3 6 29.81 1009 10 16 N/A
1:52 am 01:52 Mostly Clear 48 8.9 32 undefined 54 54 N N/A 29.80 1009 10 16 N/A
2:52 am 02:52 Mostly Cloudy 47 8.3 34 1.1 61 61 W 5 7 29.78 1009 10 16 N/A
3:52 am 03:52 Mostly Cloudy 47 8.3 34 1.1 61 61 W 5 7 29.78 1008 10 16 N/A
4:52 am 04:52 Mostly Cloudy 48 8.9 33 0.6 56 56 W 6 9 29.77 1008 10 16 N/A
5:52 am 05:52 Mostly Cloudy 43 6.1 36 2.2 76 76 SW 3 6 29.78 1008 10 16 N/A
6:52 am 06:52 Mostly Cloudy 42 5.6 36 2.2 79 79 N N/A 29.78 1009 10 16 N/A
7:52 am 07:52 Mostly Cloudy 42 5.6 38 3.3 85 85 SW 3 6 29.80 1009 10 16 N/A
8:52 am 08:52 Mostly Sunny 53 11.7 39 3.9 59 59 SW 5 7 29.80 1009 10 16 N/A
9:52 am 09:52 Sunny 59 15 37 2.8 44 44 W 8 13 29.79 1009 10 16 N/A
10:52 am 10:52 Sunny 62 16.7 34 1.1 35 35 WSW 10 17 29.78 1009 10 16 N/A
11:52 am 11:52 Sunny 66 18.9 37 2.8 34 34 SW 12 19 29.78 1008 10 16 N/A
12:52 pm 12:52 Mostly Sunny 68 20 34 1.1 28 28 SW 14 22 29.76 1008 10 16 N/A
1:52 pm 13:52 Partly Cloudy 71 21.7 34 1.1 26 26 W 14 22 29.74 1007 10 16 N/A
2:52 pm 14:52 Mostly Cloudy 68 20 33 0.6 27 27 SW 14 22 29.72 1007 10 16 N/A
3:52 pm 15:52 Mostly Cloudy 69 20.6 43 6.1 39 39 WNW 13 20 29.72 1007 10 16 N/A
4:52 pm 16:52 Mostly Sunny 68 20 41 5 38 38 NW 17 28 29.73 1007 10 16 N/A
5:52 pm 17:52 Mostly Sunny 67 19.4 36 2.2 32 32 WNW 17 28 29.75 1007 10 16 N/A
6:52 pm 18:52 Mostly Sunny 66 18.9 30 -1.1 26 26 WNW 17 28 29.76 1008 10 16 N/A
7:52 pm 19:52 Mostly Sunny 63 17.2 30 -1.1 29 29 WNW 8 13 29.77 1008 10 16 N/A
8:52 pm 20:52 Clear 58 14.4 28 -2.2 32 32 NW 5 7 29.78 1008 10 16 N/A
9:52 pm 21:52 Clear 54 12.2 28 -2.2 37 37 WSW 3 6 29.79 1009 10 16 N/A
10:52 pm 22:52 Clear 54 12.2 31 -0.6 42 42 WSW 5 7 29.79 1009 10 16 N/A
11:52 pm 23:52 Clear 46 7.8 36 2.2 68 68 SSW 7 11 29.78 1009 10 16 N/A

Powered by AerisWeather